Flag for U.S.A. Weather past 2 weeks in Louisville, Kentucky, U.S.A.

Now
27 °F

Clear.


Feels Like: 19 °F
Forecast: 24 / 46 °F
Wind: 8 mph from South

Location: Standiford Field

Current Time: Mar 7, 2015 at 12:04:25 AM

Latest Report: Mar 6, 2015 at 10:56 PM


Visibility: 10 mi

Pressure: 30.43 "Hg

Humidity: 55%

Dew point: 13 °F

Location of LouisvilleLocation

Historic Weather in Louisville — Graph

°F

Louisville temperature yesterday

Maximum temperature yesterday: 32 °F (at 4:56 PM)
Minimum temperature yesterday: 9 °F (at 6:56 AM)
Average temperature yesterday: 22 °F

Past Weeks' High & Low Weather Summary

 TemperatureHumidityPressure
High63 °F (Mar 3, 5:56 PM)97% (Feb 21, 3:56 PM)30.73 "Hg (Feb 21, 3:56 PM)
Low-5 °F (Feb 20, 3:56 AM)33% (Feb 24, 4:56 PM)29.78 "Hg (Mar 3, 4:56 PM)
Average28 °F66%30.29 "Hg
* Reported Feb 19 10:56 PM — Mar 6 10:56 PM, Louisville, Weather by CustomWeather, © 2015

Note: Actual official high and low records may vary slightly from our data, if they occured in-between our weather recording intervals... More about our weather records

Advertising

Louisville weather history for previous 24 hours

 ConditionsComfort  
Time TempWeatherWind HumidityBarometerVisibility
10:56 PM
Fri, Mar 6
27 °FClear.8 mph55%30.43 "Hg10 mi
9:56 PM27 °FClear.9 mph61%30.44 "Hg10 mi
8:56 PM28 °FClear.9 mph61%30.43 "Hg10 mi
7:56 PM29 °FClear.6 mph54%30.44 "Hg10 mi
6:56 PM30 °FClear.8 mph49%30.44 "Hg10 mi
5:56 PM31 °FSunny.10 mph45%30.44 "Hg10 mi
4:56 PM32 °FSunny.9 mph45%30.45 "Hg10 mi
3:56 PM31 °FPassing clouds.9 mph45%30.47 "Hg10 mi
2:56 PM31 °FPassing clouds.9 mph45%30.49 "Hg10 mi
1:56 PM31 °FSunny.3 mph45%30.53 "Hg10 mi
12:56 PM27 °FPassing clouds.No wind51%30.57 "Hg10 mi
11:56 AM24 °FPassing clouds.8 mph55%30.59 "Hg10 mi
10:56 AM21 °FPassing clouds.6 mph60%30.61 "Hg9 mi
9:56 AM17 °FHaze.6 mph68%30.61 "Hg6 mi
8:56 AM13 °FHaze.3 mph81%30.61 "Hg4 mi
7:56 AM10 °FIce fog.3 mph88%30.60 "Hg4 mi
6:56 AM9 °FIce fog.No wind88%30.60 "Hg5 mi
5:56 AM10 °FIce fog.No wind84%30.59 "Hg6 mi
4:56 AM13 °FClear.3 mph77%30.58 "Hg7 mi
3:56 AM12 °FClear.No wind77%30.58 "Hg8 mi
2:56 AM14 °FClear.3 mph77%30.58 "Hg8 mi
1:56 AM14 °FClear.5 mph73%30.59 "Hg8 mi
12:56 AM16 °FPassing clouds.5 mph67%30.59 "Hg9 mi
Weather by CustomWeather, © 2015

See weather overviewHow to use our weather pages